[[{"header":{"parameterUnit":"m.s-1","parameterCategory":1,"la1":30.2991,"la2":30.254,"lo1":-89.0895,"lo2":-89.0444,"dy":0.0017,"dx":0.0017,"nx":28,"ny":28,"refTime":"2025-06-21T03:00:00:Z","depth":0,"parameterNumber":2,"parameterNumberName":"U-component_of_WINDS"},"data":[0,0,0,0,0,0,0,0,0,0,0,0,0,0,0,0,0,0,0,0,0,0,0,0,0,0,0,0,0,0,0,0,0,0,0,0,0,0,0,0,0,0,0,0,0,0,0,0,0,0,0,0,0,0,0,0,0,0,0.8192,0.8193,0,0.8228,0.8229,0.8229,0.8241,0.8241,0.8241,0.8241,0.8278,0.828,0.8281,0,0,0,0,0,0,0,0,0,0,0,0,0,0.8135,0.8136,0.8192,0.8193,0.8193,0.8228,0.8229,0.8229,0.8241,0.8241,0.8241,0.824,0.8278,0.8279,0.8281,0,0,0,0,0,0,0,0,0,0,0,0,0,0.8165,0.8137,0.8192,0.8203,0.8205,0.8228,0.8229,0.823,0.8241,0.8241,0.8241,0.824,0.8278,0.8279,0.8281,0.8297,0,0,0.8286,0.8287,0,0,0,0,0,0,0,0,0.8163,0.8167,0.8201,0.8203,0.8204,0.823,0.8223,0.8252,0.8241,0.8227,0.8241,0.824,0.8263,0.8265,0.8273,0.8298,0.83,0.8286,0.8287,0.8288,0.8289,0,0,0,0,0,0,0,0.8161,0.8165,0.8207,0.8202,0.8204,0.8207,0.8211,0.8228,0.8246,0.8228,0.8229,0.8233,0.8263,0.8271,0.8274,0.83,0.8286,0.8288,0.8289,0.829,0.8341,0.8342,0,0,0,0,0,0,0.8157,0.8163,0.8206,0.8208,0.8183,0.8208,0.8213,0.8222,0.8246,0.8249,0.8234,0.8234,0.8268,0.8272,0.8275,0.8295,0.8288,0.829,0.8291,0.8341,0.8341,0.8342,0,0,0,0,0,0,0.8156,0.816,0.8204,0.8186,0.8192,0.8209,0.822,0.8223,0.8231,0.825,0.8253,0.8238,0.8268,0.8273,0.8291,0.8297,0.8291,0.8292,0.8341,0.8341,0.8342,0.8336,0,0,0,0,0,0,0.8154,0.816,0.8166,0.8186,0.8193,0.8219,0.822,0.8224,0.8233,0.8234,0.8255,0.8258,0.8268,0.8289,0.8293,0.8299,0.8294,0.834,0.8341,0.8341,0.8335,0.8336,0.8336,0,0,0,0,0,0.8152,0.8162,0.8166,0.8171,0.82,0.8219,0.8223,0.8235,0.8234,0.824,0.8252,0.8257,0.8296,0.829,0.8295,0.8302,0.834,0.8341,0.8341,0.8335,0.8336,0.8336,0,0,0,0,0,0,0.8142,0.8165,0.8169,0.8187,0.8201,0.8221,0.8229,0.8235,0.825,0.825,0.8264,0.8268,0.8286,0.8296,0.829,0.8319,0.8318,0.832,0.8312,0.8312,0.8313,0.831,0.8295,0,0,0,0,0,0.8142,0.8156,0.8175,0.8189,0.8196,0.8211,0.822,0.8228,0.8243,0.8249,0.8263,0.8278,0.8294,0.8304,0.8319,0.8337,0.8342,0.8344,0.8345,0.8345,0.8346,0.8357,0.8359,0.8344,0.8344,0.8344,0,0,0.8143,0.8157,0.8164,0.8187,0.8199,0.8213,0.8216,0.8231,0.8242,0.8252,0.827,0.8281,0.8299,0.8317,0.8326,0.8326,0.8351,0.8346,0.8346,0.8347,0.8358,0.8359,0.8361,0.8345,0.8345,0.8345,0,0,0.815,0.8162,0.8175,0.8187,0.8205,0.8215,0.8218,0.8238,0.8245,0.8264,0.8272,0.8285,0.8311,0.8324,0.8334,0.8347,0.8352,0.8351,0.8354,0.8364,0.8365,0.8366,0.8371,0.8373,0.8353,0.8353,0.8353,0,0.8148,0.8169,0.8181,0.8195,0.8205,0.8215,0.8228,0.824,0.8262,0.8269,0.8269,0.8302,0.8315,0.8337,0.834,0.8348,0.8352,0.8349,0.8364,0.8365,0.8366,0.8371,0.8373,0.8353,0.8353,0.8353,0.8353,0,0.8166,0.818,0.8189,0.821,0.8221,0.8235,0.8249,0.8259,0.8266,0.8277,0.8296,0.8312,0.833,0.8336,0.8343,0.8359,0.8359,0.8361,0.8361,0.8367,0.8372,0.8374,0.8352,0.8352,0.8352,0.8352,0,0,0.8168,0.8195,0.8198,0.8208,0.8229,0.8241,0.8256,0.8274,0.8283,0.8298,0.8311,0.8333,0.8336,0.8347,0.8355,0.8364,0.8374,0.8366,0.8366,0.8367,0.8394,0.8392,0.8394,0.8378,0.8379,0.8379,0.8392,0,0.8178,0.8204,0.8215,0.8237,0.8251,0.826,0.8273,0.8288,0.8298,0.8312,0.8324,0.834,0.8342,0.8349,0.8358,0.8371,0.838,0.837,0.8391,0.8391,0.8386,0.8396,0.8394,0.8406,0.8394,0.8395,0.8395,0,0.8193,0.8208,0.8231,0.8251,0.8257,0.8268,0.8286,0.8299,0.8316,0.8323,0.8336,0.8344,0.8361,0.8359,0.8382,0.8376,0.8385,0.8393,0.8393,0.8396,0.8393,0.8399,0.8411,0.8412,0.8398,0.8398,0.8398,0,0.8193,0.8219,0.8236,0.8244,0.8267,0.8275,0.8286,0.8302,0.8313,0.8329,0.8336,0.8354,0.8363,0.8377,0.839,0.8388,0.8412,0.8412,0.8419,0.8419,0.8424,0.8423,0.8437,0.843,0.8429,0.8429,0.8429,0,0.8203,0.8216,0.8236,0.8246,0.8262,0.8275,0.8291,0.8302,0.8317,0.833,0.834,0.8352,0.8368,0.8383,0.8393,0.8411,0.8416,0.8422,0.8425,0.8421,0.842,0.8427,0.8427,0.843,0.843,0.843,0.843,0,0.8205,0.8218,0.8238,0.8258,0.8264,0.8275,0.8293,0.8304,0.8315,0.8332,0.8336,0.8354,0.8372,0.8386,0.8409,0.8416,0.8435,0.8438,0.8429,0.8431,0.8437,0.8436,0.8456,0.8459,0.8449,0.8449,0.845,0,0.821,0.8221,0.8243,0.8252,0.8262,0.8278,0.8288,0.8302,0.8313,0.8334,0.8342,0.8361,0.8376,0.8404,0.842,0.8438,0.8441,0.8447,0.8444,0.844,0.8441,0.8441,0.8442,0.8447,0.8447,0.8447,0.8447,0,0.8219,0.8225,0.824,0.8258,0.827,0.8285,0.83,0.8307,0.8324,0.8336,0.8354,0.8366,0.839,0.8408,0.8428,0.8439,0.8446,0.8448,0.845,0.8447,0.8441,0.8445,0.843,0.8447,0.8447,0.8447,0.8447,0.8447,0.8223,0.8233,0.825,0.8267,0.828,0.8293,0.8305,0.8318,0.8333,0.8353,0.8361,0.8379,0.8397,0.8424,0.8436,0.8451,0.8452,0.8455,0.8456,0.8457,0.8457,0.8439,0.8454,0.8454,0.8455,0.8455,0.8455,0,0.8232,0.8244,0.8259,0.828,0.8293,0.8298,0.8315,0.8326,0.8342,0.8358,0.8373,0.8394,0.8412,0.8429,0.8448,0.8457,0.8461,0.8462,0.8461,0.8464,0.8455,0.8451,0.8458,0.8458,0.8458,0.8458,0.8458,0.8458,0.8239,0.8256,0.8265,0.8289,0.8301,0.8319,0.8328,0.8341,0.8354,0.8377,0.8392,0.8403,0.8419,0.844,0.8457,0.8461,0.8468,0.8468,0.8473,0.8465,0.8464,0.8464,0.846,0.8469,0.8469,0.8481,0.8481,0.8481]},{"header":{"parameterUnit":"m.s-1","parameterCategory":1,"la1":30.2991,"la2":30.254,"lo1":-89.0895,"lo2":-89.0444,"dy":0.0017,"dx":0.0017,"nx":28,"ny":28,"refTime":"2025-06-21T03:00:00:Z","depth":0,"parameterNumber":3,"parameterNumberName":"V-component_of_WINDS"},"data":[0,0,0,0,0,0,0,0,0,0,0,0,0,0,0,0,0,0,0,0,0,0,0,0,0,0,0,0,0,0,0,0,0,0,0,0,0,0,0,0,0,0,0,0,0,0,0,0,0,0,0,0,0,0,0,0,0,0,-0.8076,-0.8077,0,-0.8149,-0.8149,-0.815,-0.819,-0.819,-0.819,-0.819,-0.8264,-0.8266,-0.8268,0,0,0,0,0,0,0,0,0,0,0,0,0,-0.7971,-0.7973,-0.8076,-0.8077,-0.8077,-0.8149,-0.815,-0.8151,-0.819,-0.819,-0.819,-0.819,-0.8263,-0.8265,-0.8268,0,0,0,0,0,0,0,0,0,0,0,0,0,-0.8027,-0.7973,-0.8075,-0.8106,-0.8109,-0.8148,-0.815,-0.8151,-0.819,-0.819,-0.819,-0.819,-0.8263,-0.8265,-0.8268,-0.8282,0,0,-0.8277,-0.8278,0,0,0,0,0,0,0,0,-0.8024,-0.8031,-0.81,-0.8104,-0.8108,-0.816,-0.814,-0.8195,-0.819,-0.8159,-0.819,-0.819,-0.8229,-0.8235,-0.8248,-0.8286,-0.8289,-0.8277,-0.8278,-0.828,-0.828,0,0,0,0,0,0,0,-0.802,-0.8028,-0.8105,-0.8101,-0.8106,-0.8116,-0.8124,-0.815,-0.8192,-0.8162,-0.8165,-0.8173,-0.8231,-0.8245,-0.825,-0.829,-0.8277,-0.8279,-0.8281,-0.8282,-0.8345,-0.8345,0,0,0,0,0,0,-0.8011,-0.8025,-0.8102,-0.8107,-0.8065,-0.8118,-0.8127,-0.8143,-0.8192,-0.82,-0.8173,-0.8175,-0.824,-0.8247,-0.8253,-0.8275,-0.828,-0.8282,-0.8284,-0.8345,-0.8345,-0.8345,0,0,0,0,0,0,-0.8009,-0.8018,-0.8099,-0.8067,-0.8078,-0.8119,-0.8138,-0.8145,-0.8159,-0.8201,-0.8208,-0.818,-0.8241,-0.8249,-0.8275,-0.8278,-0.8284,-0.8286,-0.8345,-0.8345,-0.8345,-0.8317,0,0,0,0,0,0,-0.8006,-0.8017,-0.8022,-0.8066,-0.8079,-0.812,-0.8138,-0.8146,-0.8164,-0.8167,-0.8209,-0.8216,-0.8242,-0.8271,-0.8278,-0.8281,-0.8288,-0.8345,-0.8345,-0.8345,-0.8317,-0.8316,-0.8314,0,0,0,0,0,-0.8002,-0.8011,-0.8022,-0.8032,-0.8087,-0.812,-0.8128,-0.8157,-0.8164,-0.817,-0.8197,-0.8215,-0.8276,-0.8273,-0.8282,-0.8286,-0.8345,-0.8345,-0.8345,-0.8318,-0.8316,-0.8314,0,0,0,0,0,0,-0.7965,-0.8017,-0.8031,-0.8054,-0.8082,-0.8127,-0.8136,-0.8153,-0.818,-0.8182,-0.8217,-0.8226,-0.825,-0.827,-0.8266,-0.8304,-0.8313,-0.8314,-0.8289,-0.8287,-0.8286,-0.828,-0.8291,0,0,0,0,0,-0.796,-0.7982,-0.8026,-0.8042,-0.8056,-0.8093,-0.8109,-0.8129,-0.816,-0.8172,-0.8201,-0.8231,-0.8257,-0.8273,-0.8299,-0.8321,-0.8331,-0.8328,-0.8326,-0.8324,-0.8326,-0.834,-0.834,-0.8345,-0.8345,-0.8345,0,0,-0.7948,-0.798,-0.7991,-0.8036,-0.806,-0.8084,-0.8103,-0.8126,-0.8144,-0.8176,-0.8203,-0.8225,-0.826,-0.8285,-0.8297,-0.8303,-0.8327,-0.8324,-0.8323,-0.8325,-0.834,-0.834,-0.8339,-0.8345,-0.8345,-0.8345,0,0,-0.794,-0.7966,-0.7983,-0.8008,-0.8045,-0.807,-0.8074,-0.8117,-0.8133,-0.8161,-0.8186,-0.8208,-0.8251,-0.8276,-0.8294,-0.8297,-0.8315,-0.8305,-0.8296,-0.831,-0.8309,-0.8309,-0.8312,-0.8312,-0.8306,-0.8306,-0.8306,0,-0.7922,-0.7957,-0.7989,-0.8012,-0.8031,-0.8062,-0.8081,-0.8103,-0.8146,-0.8159,-0.8165,-0.8222,-0.8248,-0.8279,-0.8281,-0.8294,-0.83,-0.83,-0.8307,-0.8307,-0.8307,-0.831,-0.8311,-0.8304,-0.8304,-0.8305,-0.8305,0,-0.7934,-0.7958,-0.7968,-0.801,-0.8031,-0.8051,-0.8086,-0.8103,-0.8122,-0.8147,-0.8176,-0.8208,-0.8242,-0.8251,-0.8269,-0.8286,-0.8288,-0.83,-0.831,-0.8305,-0.8308,-0.8309,-0.8302,-0.8303,-0.8303,-0.8304,0,0,-0.7903,-0.7965,-0.7968,-0.7989,-0.8033,-0.8053,-0.8075,-0.8109,-0.8123,-0.8153,-0.8173,-0.821,-0.8222,-0.8243,-0.8264,-0.8276,-0.8279,-0.8287,-0.8288,-0.8285,-0.8301,-0.8293,-0.8293,-0.8291,-0.8291,-0.8291,-0.8298,0,-0.7903,-0.7944,-0.7974,-0.8004,-0.8028,-0.8059,-0.8078,-0.8108,-0.8132,-0.8156,-0.8182,-0.8209,-0.8221,-0.8234,-0.8247,-0.8276,-0.8283,-0.8275,-0.8311,-0.8311,-0.8302,-0.8295,-0.8286,-0.8291,-0.83,-0.83,-0.83,0,-0.7907,-0.7937,-0.7969,-0.8013,-0.8024,-0.8041,-0.8076,-0.8098,-0.8133,-0.815,-0.8174,-0.8196,-0.8222,-0.8229,-0.8265,-0.826,-0.8276,-0.8292,-0.8293,-0.8298,-0.8306,-0.8301,-0.8293,-0.8294,-0.8302,-0.8302,-0.8302,0,-0.7883,-0.7932,-0.7958,-0.7974,-0.8026,-0.8037,-0.8059,-0.8094,-0.8113,-0.8144,-0.8157,-0.8189,-0.8207,-0.8232,-0.8263,-0.8266,-0.8297,-0.8306,-0.8312,-0.8311,-0.8317,-0.8317,-0.8313,-0.8326,-0.8326,-0.8326,-0.8326,0,-0.788,-0.7899,-0.7948,-0.7964,-0.7987,-0.8022,-0.8044,-0.8068,-0.8099,-0.8121,-0.8149,-0.8169,-0.8209,-0.8234,-0.8258,-0.8286,-0.8293,-0.8308,-0.8314,-0.8306,-0.8304,-0.8317,-0.8318,-0.8326,-0.8326,-0.8326,-0.8326,0,-0.7857,-0.7891,-0.7922,-0.7969,-0.7981,-0.7996,-0.8036,-0.8053,-0.8079,-0.8107,-0.8115,-0.8156,-0.8187,-0.8221,-0.8262,-0.8279,-0.8305,-0.8314,-0.8294,-0.8298,-0.8302,-0.8301,-0.8307,-0.831,-0.832,-0.832,-0.832,0,-0.7853,-0.7869,-0.7918,-0.7935,-0.7956,-0.7983,-0.8004,-0.8039,-0.8059,-0.8101,-0.8113,-0.8147,-0.8175,-0.8224,-0.8257,-0.829,-0.83,-0.83,-0.8305,-0.8297,-0.8301,-0.83,-0.8303,-0.8298,-0.8298,-0.8298,-0.8297,0,-0.7843,-0.786,-0.7888,-0.7923,-0.7946,-0.7975,-0.8005,-0.8017,-0.8059,-0.808,-0.8112,-0.8135,-0.8179,-0.8212,-0.8249,-0.8272,-0.8292,-0.8296,-0.8299,-0.8291,-0.8279,-0.8287,-0.829,-0.8295,-0.8296,-0.8296,-0.8296,-0.8296,-0.7831,-0.7847,-0.7884,-0.7915,-0.7942,-0.797,-0.7989,-0.8018,-0.8046,-0.8085,-0.8104,-0.8137,-0.8173,-0.8225,-0.8247,-0.8274,-0.828,-0.8284,-0.8285,-0.8286,-0.8285,-0.8274,-0.828,-0.8281,-0.8281,-0.8281,-0.8281,0,-0.7823,-0.7849,-0.7877,-0.7919,-0.7944,-0.7961,-0.7996,-0.8015,-0.8044,-0.8076,-0.8104,-0.8142,-0.8175,-0.8212,-0.8247,-0.8261,-0.8271,-0.8269,-0.8269,-0.8274,-0.8276,-0.8271,-0.8261,-0.8261,-0.8261,-0.8261,-0.8261,-0.8261,-0.7822,-0.7851,-0.7872,-0.7914,-0.794,-0.7973,-0.7992,-0.8018,-0.8044,-0.8085,-0.8113,-0.8137,-0.8171,-0.821,-0.8241,-0.8251,-0.8263,-0.8258,-0.8271,-0.8272,-0.8274,-0.8275,-0.827,-0.826,-0.826,-0.8267,-0.8267,-0.8267]}]]